| time (UTC) | temp C | wind direction | speed KPH | gust KPH | rain 1hr cm | rain 24hr cm | rain mn cm | humidity % | barometer mb |
| 20260505011705 | 16 | 5 | 1.6 | 1.6 | 0.00 | 0.00 | 0.00 | 61 | 1008.4 |
| 20260505011205 | 16 | 5 | 1.6 | 3.2 | 0.00 | 0.00 | 0.00 | 60 | 1008.4 |
| 20260505010705 | 16 | 5 | 1.6 | 3.2 | 0.00 | 0.00 | 0.00 | 60 | 1008.4 |
| 20260505005705 | 16 | 5 | 1.6 | 3.2 | 0.00 | 0.00 | 0.00 | 61 | 1008.4 |
| 20260505005205 | 17 | 5 | 1.6 | 3.2 | 0.00 | 0.00 | 0.00 | 61 | 1008.3 |
| 20260505004705 | 17 | 5 | 0.0 | 3.2 | 0.00 | 0.00 | 0.00 | 60 | 1008.2 |
| 20260505004205 | 17 | 5 | 0.0 | 1.6 | 0.00 | 0.00 | 0.00 | 60 | 1008.1 |
| 20260505003704 | 17 | 5 | 1.6 | 1.6 | 0.00 | 0.00 | 0.00 | 59 | 1008.0 |
| 20260505003205 | 17 | 5 | 1.6 | 3.2 | 0.00 | 0.00 | 0.00 | 58 | 1008.1 |
| 20260505002705 | 17 | 5 | 1.6 | 3.2 | 0.00 | 0.00 | 0.00 | 58 | 1008.0 |
| 20260505002204 | 17 | 5 | 0.0 | 0.0 | 0.00 | 0.00 | 0.00 | 60 | 1007.9 |
| 20260505001705 | 18 | 5 | 1.6 | 3.2 | 0.00 | 0.00 | 0.00 | 58 | 1007.9 |
| 20260505001205 | 17 | 5 | 1.6 | 1.6 | 0.00 | 0.00 | 0.00 | 58 | 1007.9 |
| 20260505000705 | 18 | 5 | 1.6 | 4.8 | 0.00 | 0.00 | 0.00 | 56 | 1007.9 |
| 20260505000204 | 18 | 211 | 1.6 | 4.8 | 0.00 | 0.00 | 0.00 | 56 | 1007.9 |
| 20260504235704 | 18 | 178 | 0.0 | 3.2 | 0.00 | 0.00 | 0.00 | 56 | 1007.8 |
| 20260504235205 | 18 | 178 | 1.6 | 3.2 | 0.00 | 0.00 | 0.00 | 56 | 1007.8 |
| 20260504234705 | 20 | 173 | 1.6 | 9.7 | 0.00 | 0.00 | 0.00 | 52 | 1007.8 |
| 20260504234204 | 19 | 203 | 1.6 | 4.8 | 0.00 | 0.00 | 0.00 | 54 | 1007.8 |
| 20260504233705 | 20 | 203 | 1.6 | 4.8 | 0.00 | 0.00 | 0.00 | 52 | 1007.7 |
| 20260504233204 | 21 | 202 | 4.8 | 9.7 | 0.00 | 0.00 | 0.00 | 47 | 1007.7 |
| 20260504232704 | 21 | 177 | 3.2 | 9.7 | 0.00 | 0.00 | 0.00 | 46 | 1007.6 |
| 20260504231704 | 21 | 182 | 4.8 | 14.5 | 0.00 | 0.00 | 0.00 | 45 | 1007.7 |
| 20260504231204 | 21 | 154 | 4.8 | 9.7 | 0.00 | 0.00 | 0.00 | 43 | 1007.7 |
| 20260504230704 | 22 | 184 | 4.8 | 12.9 | 0.00 | 0.00 | 0.00 | 42 | 1007.7 |
| 20260504230205 | 22 | 191 | 4.8 | 19.3 | 0.00 | 0.00 | 0.00 | 42 | 1007.8 |
| 20260504225205 | 22 | 211 | 4.8 | 19.3 | 0.00 | 0.00 | 0.00 | 42 | 1007.7 |
| 20260504224705 | 22 | 195 | 4.8 | 19.3 | 0.00 | 0.00 | 0.00 | 41 | 1007.7 |
| 20260504224204 | 22 | 183 | 4.8 | 19.3 | 0.00 | 0.00 | 0.00 | 42 | 1007.7 |
| 20260504223705 | 22 | 186 | 11.3 | 29.0 | 0.00 | 0.00 | 0.00 | 41 | 1007.7 |
| 20260504223204 | 22 | 185 | 4.8 | 22.5 | 0.00 | 0.00 | 0.00 | 41 | 1007.7 |
| 20260504222705 | 22 | 188 | 9.7 | 24.1 | 0.00 | 0.00 | 0.00 | 40 | 1007.7 |
| 20260504222204 | 22 | 186 | 9.7 | 20.9 | 0.00 | 0.00 | 0.00 | 39 | 1007.8 |
| 20260504221705 | 23 | 190 | 9.7 | 22.5 | 0.00 | 0.00 | 0.00 | 40 | 1007.8 |
| 20260504221204 | 23 | 187 | 9.7 | 22.5 | 0.00 | 0.00 | 0.00 | 39 | 1007.8 |
| 20260504220705 | 23 | 173 | 4.8 | 14.5 | 0.00 | 0.00 | 0.00 | 40 | 1007.8 |
| 20260504215704 | 23 | 194 | 6.4 | 14.5 | 0.00 | 0.00 | 0.00 | 40 | 1007.8 |
| 20260504215204 | 23 | 178 | 3.2 | 24.1 | 0.00 | 0.00 | 0.00 | 39 | 1007.8 |
| 20260504214704 | 23 | 217 | 4.8 | 11.3 | 0.00 | 0.00 | 0.00 | 39 | 1007.7 |
| 20260504214204 | 23 | 212 | 11.3 | 20.9 | 0.00 | 0.00 | 0.00 | 40 | 1007.7 |
| 20260504213704 | 23 | 200 | 8.0 | 16.1 | 0.00 | 0.00 | 0.00 | 39 | 1007.7 |
| 20260504212704 | 24 | 161 | 3.2 | 12.9 | 0.00 | 0.00 | 0.00 | 37 | 1007.7 |
| 20260504212204 | 24 | 180 | 8.0 | 19.3 | 0.00 | 0.00 | 0.00 | 36 | 1007.7 |
| 20260504211704 | 24 | 181 | 8.0 | 19.3 | 0.00 | 0.00 | 0.00 | 34 | 1007.7 |
| 20260504211204 | 24 | 217 | 4.8 | 14.5 | 0.00 | 0.00 | 0.00 | 35 | 1007.6 |
| 20260504210704 | 24 | 196 | 4.8 | 20.9 | 0.00 | 0.00 | 0.00 | 36 | 1007.6 |
| 20260504210205 | 24 | 210 | 3.2 | 12.9 | 0.00 | 0.00 | 0.00 | 34 | 1007.6 |
| 20260504205705 | 24 | 240 | 8.0 | 16.1 | 0.00 | 0.00 | 0.00 | 35 | 1007.6 |
| 20260504205205 | 25 | 203 | 4.8 | 12.9 | 0.00 | 0.00 | 0.00 | 34 | 1007.7 |
| 20260504204704 | 24 | 195 | 3.2 | 11.3 | 0.00 | 0.00 | 0.00 | 36 | 1007.6 |
| 20260504204204 | 24 | 203 | 3.2 | 11.3 | 0.00 | 0.00 | 0.00 | 34 | 1007.7 |
| 20260504203704 | 24 | 263 | 4.8 | 11.3 | 0.00 | 0.00 | 0.00 | 33 | 1007.7 |
| 20260504203204 | 24 | 263 | 4.8 | 11.3 | 0.00 | 0.00 | 0.00 | 34 | 1007.8 |
| 20260504202705 | 24 | 315 | 8.0 | 12.9 | 0.00 | 0.00 | 0.00 | 35 | 1007.9 |
| 20260504202204 | 25 | 219 | 8.0 | 16.1 | 0.00 | 0.00 | 0.00 | 35 | 1008.1 |
| 20260504201704 | 24 | 243 | 4.8 | 16.1 | 0.00 | 0.00 | 0.00 | 35 | 1008.1 |
| 20260504201205 | 24 | 214 | 3.2 | 11.3 | 0.00 | 0.00 | 0.00 | 34 | 1008.1 |
| 20260504200705 | 24 | 241 | 4.8 | 14.5 | 0.00 | 0.00 | 0.00 | 35 | 1008.3 |
| 20260504195704 | 25 | 236 | 3.2 | 19.3 | 0.00 | 0.00 | 0.00 | 37 | 1008.4 |
| 20260504195204 | 25 | 198 | 1.6 | 8.0 | 0.00 | 0.00 | 0.00 | 35 | 1008.4 |
| 20260504194204 | 24 | 166 | 4.8 | 11.3 | 0.00 | 0.00 | 0.00 | 34 | 1008.7 |
| 20260504193204 | 23 | 219 | 4.8 | 12.9 | 0.00 | 0.00 | 0.00 | 36 | 1008.8 |
| 20260504192705 | 24 | 250 | 4.8 | 14.5 | 0.00 | 0.00 | 0.00 | 38 | 1009.0 |
| 20260504192204 | 24 | 217 | 6.4 | 14.5 | 0.00 | 0.00 | 0.00 | 40 | 1009.0 |
| 20260504191204 | 24 | 278 | 3.2 | 11.3 | 0.00 | 0.00 | 0.00 | 39 | 1009.2 |
| 20260504190704 | 24 | 197 | 6.4 | 16.1 | 0.00 | 0.00 | 0.00 | 38 | 1009.2 |
| 20260504190204 | 23 | 174 | 3.2 | 16.1 | 0.00 | 0.00 | 0.00 | 38 | 1009.3 |
| 20260504185705 | 23 | 217 | 9.7 | 27.4 | 0.00 | 0.00 | 0.00 | 38 | 1009.5 |
| 20260504185204 | 23 | 268 | 4.8 | 11.3 | 0.00 | 0.00 | 0.00 | 40 | 1009.5 |
| 20260504184704 | 23 | 206 | 4.8 | 12.9 | 0.00 | 0.00 | 0.00 | 38 | 1009.7 |
| 20260504184205 | 23 | 209 | 6.4 | 20.9 | 0.00 | 0.00 | 0.00 | 39 | 1009.8 |
| 20260504183705 | 23 | 259 | 8.0 | 20.9 | 0.00 | 0.00 | 0.00 | 36 | 1009.9 |
| 20260504183206 | 23 | 212 | 4.8 | 19.3 | 0.00 | 0.00 | 0.00 | 37 | 1009.8 |
| 20260504182705 | 23 | 254 | 4.8 | 14.5 | 0.00 | 0.00 | 0.00 | 37 | 1009.9 |
| 20260504182205 | 23 | 225 | 8.0 | 16.1 | 0.00 | 0.00 | 0.00 | 39 | 1010.0 |
| 20260504180706 | 23 | 289 | 4.8 | 19.3 | 0.00 | 0.00 | 0.00 | 36 | 1010.3 |
| 20260504180206 | 23 | 256 | 8.0 | 19.3 | 0.00 | 0.00 | 0.00 | 37 | 1010.4 |
| 20260504175705 | 22 | 212 | 6.4 | 14.5 | 0.00 | 0.00 | 0.00 | 39 | 1010.4 |
| 20260504175206 | 23 | 207 | 4.8 | 12.9 | 0.00 | 0.00 | 0.00 | 40 | 1010.4 |
| 20260504174705 | 22 | 234 | 8.0 | 19.3 | 0.00 | 0.00 | 0.00 | 39 | 1010.5 |
| 20260504174205 | 22 | 246 | 4.8 | 12.9 | 0.00 | 0.00 | 0.00 | 38 | 1010.6 |
| 20260504173705 | 22 | 218 | 3.2 | 12.9 | 0.00 | 0.00 | 0.00 | 38 | 1010.6 |
| 20260504173205 | 22 | 214 | 3.2 | 11.3 | 0.00 | 0.00 | 0.00 | 41 | 1010.7 |
| 20260504172705 | 22 | 202 | 6.4 | 16.1 | 0.00 | 0.00 | 0.00 | 37 | 1010.8 |
| 20260504172205 | 22 | 188 | 4.8 | 14.5 | 0.00 | 0.00 | 0.00 | 43 | 1010.8 |
| 20260504171705 | 22 | 195 | 4.8 | 16.1 | 0.00 | 0.00 | 0.00 | 40 | 1010.9 |
| 20260504171205 | 22 | 302 | 3.2 | 14.5 | 0.00 | 0.00 | 0.00 | 41 | 1011.0 |
| 20260504170706 | 22 | 206 | 4.8 | 16.1 | 0.00 | 0.00 | 0.00 | 39 | 1011.1 |
| 20260504170204 | 22 | 191 | 4.8 | 19.3 | 0.00 | 0.00 | 0.00 | 42 | 1011.1 |
| 20260504150705 | 18 | 187 | 8.0 | 14.5 | 0.00 | 0.00 | 0.00 | 46 | 1012.8 |
| 20260504150204 | 18 | 174 | 6.4 | 12.9 | 0.00 | 0.00 | 0.00 | 46 | 1012.8 |
| 20260504140705 | 15 | 183 | 4.8 | 9.7 | 0.00 | 0.00 | 0.00 | 50 | 1013.5 |
| 20260504140205 | 15 | 195 | 3.2 | 9.7 | 0.00 | 0.00 | 0.00 | 50 | 1013.4 |
| 20260504130704 | 12 | 184 | 3.2 | 4.8 | 0.00 | 0.00 | 0.00 | 53 | 1013.9 |
| 20260504130204 | 11 | 175 | 1.6 | 3.2 | 0.00 | 0.00 | 0.00 | 56 | 1013.9 |
| 20260504120204 | 8 | 200 | 1.6 | 3.2 | 0.00 | 0.00 | 0.00 | 62 | 1014.3 |
| 20260504110704 | 5 | 233 | 0.0 | 0.0 | 0.00 | 0.00 | 0.00 | 84 | 1014.2 |
| 20260504110204 | 5 | 233 | 0.0 | 0.0 | 0.00 | 0.00 | 0.00 | 84 | 1014.2 |
| 20260504100204 | 2 | 233 | 0.0 | 0.0 | 0.00 | 0.00 | 0.00 | 85 | 1014.4 |
| 20260504081705 | 2 | 298 | 0.0 | 0.0 | 0.00 | 0.00 | 0.00 | 83 | 1014.6 |
| 20260504081204 | 2 | 298 | 0.0 | 0.0 | 0.00 | 0.00 | 0.00 | 84 | 1014.6 |
| 20260504080705 | 2 | 298 | 0.0 | 0.0 | 0.00 | 0.00 | 0.00 | 84 | 1014.7 |
| 20260504080205 | 2 | 298 | 0.0 | 0.0 | 0.00 | 0.00 | 0.00 | 83 | 1014.6 |
| 20260504070205 | 3 | 298 | 0.0 | 0.0 | 0.00 | 0.00 | 0.00 | 81 | 1014.7 |
| 20260504050705 | 4 | 298 | 0.0 | 0.0 | 0.00 | 0.00 | 0.00 | 76 | 1014.8 |
| 20260504050205 | 4 | 298 | 0.0 | 0.0 | 0.00 | 0.00 | 0.00 | 76 | 1014.8 |
| 20260504045705 | 4 | 298 | 0.0 | 0.0 | 0.00 | 0.00 | 0.00 | 76 | 1014.8 |
| 20260504045204 | 4 | 298 | 0.0 | 0.0 | 0.00 | 0.00 | 0.00 | 77 | 1014.8 |
| 20260504044705 | 4 | 298 | 0.0 | 0.0 | 0.00 | 0.00 | 0.00 | 76 | 1014.8 |
| 20260504044205 | 4 | 298 | 0.0 | 0.0 | 0.00 | 0.00 | 0.00 | 75 | 1014.8 |
| 20260504043705 | 5 | 298 | 0.0 | 0.0 | 0.00 | 0.00 | 0.00 | 76 | 1014.8 |
| 20260504043205 | 5 | 298 | 0.0 | 0.0 | 0.00 | 0.00 | 0.00 | 74 | 1014.8 |
| 20260504042705 | 5 | 298 | 0.0 | 0.0 | 0.00 | 0.00 | 0.00 | 73 | 1014.8 |
| 20260504042205 | 5 | 298 | 0.0 | 0.0 | 0.00 | 0.00 | 0.00 | 69 | 1014.8 |
| 20260504041705 | 5 | 298 | 0.0 | 0.0 | 0.00 | 0.00 | 0.00 | 70 | 1014.7 |
| 20260504041205 | 5 | 298 | 0.0 | 0.0 | 0.00 | 0.00 | 0.00 | 70 | 1014.8 |
| 20260504040705 | 5 | 298 | 0.0 | 0.0 | 0.00 | 0.00 | 0.00 | 70 | 1014.8 |
| 20260504040205 | 5 | 298 | 0.0 | 0.0 | 0.00 | 0.00 | 0.00 | 70 | 1014.9 |
| 20260504035705 | 5 | 298 | 0.0 | 0.0 | 0.00 | 0.00 | 0.00 | 72 | 1014.9 |
| 20260504035204 | 5 | 298 | 0.0 | 0.0 | 0.00 | 0.00 | 0.00 | 73 | 1014.8 |
| 20260504034704 | 5 | 298 | 0.0 | 3.2 | 0.00 | 0.00 | 0.00 | 73 | 1014.8 |
| 20260504034204 | 5 | 298 | 1.6 | 1.6 | 0.00 | 0.00 | 0.00 | 72 | 1014.7 |
| 20260504033704 | 6 | 298 | 0.0 | 0.0 | 0.00 | 0.00 | 0.00 | 72 | 1014.6 |
| 20260504033204 | 6 | 298 | 0.0 | 3.2 | 0.00 | 0.00 | 0.00 | 70 | 1014.5 |
| 20260504032204 | 6 | 298 | 0.0 | 1.6 | 0.00 | 0.00 | 0.00 | 69 | 1014.5 |
| 20260504031705 | 7 | 298 | 0.0 | 0.0 | 0.00 | 0.00 | 0.00 | 67 | 1014.6 |
| 20260504031205 | 7 | 298 | 0.0 | 3.2 | 0.00 | 0.00 | 0.00 | 62 | 1014.6 |
| 20260504030705 | 7 | 298 | 0.0 | 1.6 | 0.00 | 0.00 | 0.00 | 63 | 1014.4 |
| 20260504030205 | 7 | 298 | 1.6 | 1.6 | 0.00 | 0.00 | 0.00 | 62 | 1014.4 |
| 20260504025205 | 7 | 298 | 1.6 | 1.6 | 0.00 | 0.00 | 0.00 | 65 | 1014.4 |
| 20260504024205 | 7 | 298 | 0.0 | 3.2 | 0.00 | 0.00 | 0.00 | 66 | 1014.5 |
| 20260504023704 | 6 | 298 | 0.0 | 1.6 | 0.00 | 0.00 | 0.00 | 67 | 1014.5 |
| 20260504022704 | 8 | 298 | 0.0 | 3.2 | 0.00 | 0.00 | 0.00 | 60 | 1014.4 |
| 20260504022204 | 8 | 298 | 1.6 | 1.6 | 0.00 | 0.00 | 0.00 | 62 | 1014.3 |
| 20260504021704 | 7 | 298 | 1.6 | 1.6 | 0.00 | 0.00 | 0.00 | 61 | 1014.3 |
| 20260504021204 | 7 | 298 | 0.0 | 0.0 | 0.00 | 0.00 | 0.00 | 64 | 1014.3 |
| 20260504020704 | 7 | 298 | 0.0 | 0.0 | 0.00 | 0.00 | 0.00 | 63 | 1014.3 |
| 20260504015704 | 7 | 298 | 0.0 | 0.0 | 0.00 | 0.00 | 0.00 | 67 | 1014.3 |
| 20260504015205 | 8 | 298 | 0.0 | 0.0 | 0.00 | 0.00 | 0.00 | 64 | 1014.2 |
| 20260504014704 | 8 | 298 | 0.0 | 0.0 | 0.00 | 0.00 | 0.00 | 63 | 1014.2 |
| 20260504014204 | 8 | 298 | 0.0 | 3.2 | 0.00 | 0.00 | 0.00 | 61 | 1014.2 |
| 20260504013704 | 8 | 298 | 1.6 | 1.6 | 0.00 | 0.00 | 0.00 | 63 | 1014.2 |
| 20260504013205 | 8 | 298 | 1.6 | 1.6 | 0.00 | 0.00 | 0.00 | 64 | 1014.2 |
| 20260504012705 | 8 | 298 | 0.0 | 1.6 | 0.00 | 0.00 | 0.00 | 64 | 1014.2 |
| 20260504012205 | 8 | 298 | 0.0 | 0.0 | 0.00 | 0.00 | 0.00 | 65 | 1014.1 |